Starlink 31512

operational
NORAD ID: 59500 Int'l Des: 2024-071 Owner: SPXS Country: US Constellation: starlink
LEOCIRCULAR

Starlink 31512について

説明を読み込み中...

リアルタイム位置

3D地球を読み込み中...

次回通過

高度履歴

Altitude vs Time

uPlot chart will show altitude changes over time

軌道要素

1 59500U 24071S 25353.47636138 .00000618 00000-0 31958-4 0 9994
2 59500 42.9988 32.5996 0000607 256.7159 103.3625 15.27572259 96395
Epoch: Dec 19, 2025 • Age: 14 hours

現在のステータス

高度 482.3 km
速度 7.63 km/s
衛星直下点 8.96°N, 74.16°W
打ち上げ日 Apr 13, 2024
運用期間 1.6 years
タイプ internet

技術仕様

分類 Payload
質量 730.00 kg
乾燥質量 700.00 kg
総質量 730.00 kg
長さ 0.30 m
直径 4.10 m
スパン 29.00 m
形状 Box + pan
製造者 SPXS
バスタイプ Starlink V2M
フェーズステータス In Orbit
所有者/国 SPXS/US

大規模コンステレーション

Loading constellations...